STARLINK-3178, 51467

Orbit data source: Space-Track

STARLINK-3178, 51467 is a payload satellite owned by SpaceX/Seattle (US) in LEO that was launched on Thu, 03 Feb 2022 UTC via an FALCON 9 launch vehicle from the Air Force Eastern Test Range (AFETR). Payload-class satellites include a variety of spacecraft equipped with specific instruments for various scientific and technological missions. These include communications satellites like Starlink; space stations such as the ISS; scientific satellites like the Hubble; Earth observation satellites from companies like Planet Labs, Umbra, and HawkEye 360; GPS; miniature CubeSats for education and research; and military/defense satellites.

Loading next visibility...
Identifier
51467, 2022-010M
Orbit
LEO
Country
Flag of USUS
Related business
Manufacturer
SpaceX/Seattle
Mission
Operational Commercial Communications
Bus & Motor
STARLINK, Unknown motor
Mass
297 kg wet, ~275 kg dry
Launch date (UTC)
2022-02-03 (4 years ago)
Launch vehicle
FALCON 9
Launch site
Air Force Eastern Test Range (AFETR)
Object type
Payload
Rocket body
Debris
Shape & HBR
Box + 1 Pan, 10.1 m
Radar Cross Section
13.562 m², Large (>1 m²)

Expand to show TLE details & history
Last TLE update: 2 days ago

TLE from 2 days ago
0 STARLINK-3178
1 51467U 22010M   26171.34263468  .00001414  00000-0  10693-3 0  9993
2 51467  53.1583 178.1777 0001089  98.8345 261.2770 15.08841371242015
Epoch: 2026-06-20T08:13Z
TLE epoch observation values (Epoch: 2026-06-20T08:13:23.636Z)
Latitude
0.00001°
Longitude
146.27059°
Altitude
540.745 km
Speed
7.593 km/s
True Right ascension
11h 52m 42s
True Declination
0° 00' 00"
Sunlit
Object was in daylight at epoch
Visualization orbit readout
Latitude
Unknown
Longitude
Unknown
Altitude
Unknown
Speed
Unknown
Apparent Right ascension
Unknown
Apparent Declination
Unknown
Sunlit
N/A
Visualization observer readout
Local Sidereal Time
21:40:51
Azimuth
Unknown
Elevation
Unknown
Doppler factor
Unknown
Orbital elements
Apogee altitude
540.747 km
Perigee altitude
539.24 km
Semi-major axis
6,918.131 km
Eccentricity
0.00011
Inclination
53.1583°
RAAN
178.1777°
Arg. of periapsis
98.8345°
True anomaly
261.26467°
Mean anomaly
261.277°
Eccentric anomaly
261.27083°
Mean motion
3.7719 °/min
Orbital period
95.44 mins
BSTAR
0.00010693
Loading maneuver chart data...
Computing Atmospheric mass density...

Documentation

Showing up to 5 results
|